Regional Weather Roundup
Issued by NWS

Home | Current Version | Previous Version | Text Only | Print | Product List | Glossary Off
Versions: 1 2 3 4 5 6 7 8 9 10 11 12 13 14 15 16 17 18 19 20 21 22 23 24 25 26 27 28 29 30 31 32 33 34 35 36 37 38 39 40 41 42 43 44 45 46 47 48 49 50

000
ASUS44 KMEG 221210
RWRTN
TENNESSEE HOURLY STATE WEATHER ROUNDUP
NATIONAL WEATHER SERVICE MEMPHIS TN
600 AM CST MON DEC 22 2014

TNZ002-004-019-021-049-052-054-088>092-221300-
WEST TENNESSEE

CITY           SKY/WX    TMP DP  RH WIND       PRES   REMARKS
MEMPHIS INTL   DRZL/FOG  49  47  93 S7        29.84S VSB 1
NWS MEMPHIS      N/A     49 N/A N/A MISG        N/A
JACKSON        CLOUDY    49  46  90 S9        29.86F
DYERSBURG      CLOUDY    46  36  66 CALM      29.87R
UNION CITY     CLOUDY    45  43  93 SE10      29.85F
PARIS          CLOUDY    43  39  87 SE10      29.87F
LEXINGTON      CLOUDY    46  45  93 S5        29.89R
SAVANNAH       CLOUDY    48  48 100 S8        29.90S
$$

TNZ008-025-027-028-033-062-065-066-221300-
NORTH MIDDLE TENNESSEE

CITY           SKY/WX    TMP DP  RH WIND       PRES   REMARKS
NASHVILLE      CLOUDY    48  44  86 SE5       29.95F
CLARKSVILLE    CLOUDY    45  42  89 SE8       29.92S
SMYRNA         CLOUDY    46  44  93 CALM      29.97S
COOKEVILLE     CLOUDY    46  43  87 S5        29.97F
CROSSVILLE     CLOUDY    45  39  79 SE3       29.99S
$$

TNZ061-075-076-078-094-096-097-221300-
SOUTH MIDDLE TENNESSEE

CITY           SKY/WX    TMP DP  RH WIND       PRES   REMARKS
FAYETTEVILLE   CLOUDY    46  43  87 MISG      29.96R
TULLAHOMA      CLOUDY    46  43  87 SE3       29.97R
WINCHESTER     CLOUDY    46  43  87 SE8       29.96F
MCMINNVILLE    CLOUDY    48  46  93 CALM      29.97S
SHELBYVILLE    CLOUDY    48  45  87 SE6       29.96S
$$

TNZ017-018-042-046-047-221300-
NORTHEAST TENNESSEE

CITY           SKY/WX    TMP DP  RH WIND       PRES   REMARKS
TRI CITIES     CLOUDY    40  36  86 CALM      30.04F
ELIZABETHTON   CLOUDY    43  37  81 E5        30.04R
$$

TNZ012-013-036-069-073-074-221300-
CENTRAL EAST TENNESSEE

CITY           SKY/WX    TMP DP  RH WIND       PRES   REMARKS
KNOXVILLE      CLOUDY    43  38  82 CALM      30.03R
OAK RIDGE      CLOUDY    45  38  76 CALM      30.05R
GATLINBURG     CLOUDY    37  36  93 CALM      30.03R
MORRISTOWN     CLOUDY    43  37  81 E7        30.02R
$$

TNZ083-085-099-221300-
SOUTHEAST TENNESSEE

CITY           SKY/WX    TMP DP  RH WIND       PRES   REMARKS
CHATTANOOGA    CLOUDY    47  40  76 CALM      30.02S
$$

SKY/WX REPORTED AS FAIR MEANS FEW OR NO CLOUDS BELOW
12 THOUSAND FEET.




USA.gov is the U.S. government's official web portal to all federal, state and local government web resources and services.